.
WxDataArchive / Data Records for 2008-10-07
2008-10-06 October 2008 2008-10-08

Data Records for Tuesday, 07 October 2008

Time	Temp	Chill	HIndex	Humid	Dewpt	 Wind 	HiWind	WindDir	Rain 	Barom 
-----	----	-----	------	-----	-----	------	------	-------	-----	----- 
00:00	52.0	52.0	52.0	71	42.9	1	3	90	0.00	30.277 
00:05	51.9	51.9	51.9	71	42.8	1	4	90	0.00	30.277 
00:10	51.9	51.9	51.9	70	42.4	2	7	90	0.00	30.275 
00:15	51.9	51.9	51.9	70	42.4	2	6	90	0.00	30.273 
00:20	51.9	51.9	51.9	70	42.4	2	7	90	0.00	30.272 
00:25	51.7	51.7	51.7	70	42.2	2	5	112	0.00	30.272 
00:30	51.7	51.7	51.7	70	42.2	2	4	90	0.00	30.272 
00:35	51.6	51.6	51.6	70	42.1	2	4	90	0.00	30.270 
00:40	51.6	51.6	51.6	70	42.1	2	6	90	0.00	30.271 
00:45	51.4	51.4	51.4	70	41.9	2	6	90	0.00	30.268 
00:50	51.3	51.3	51.3	71	42.2	2	5	90	0.00	30.266 
00:55	51.1	51.1	51.1	71	42.0	2	4	90	0.00	30.262 
01:00	51.0	51.0	51.0	71	41.9	2	6	112	0.00	30.264 
01:05	51.0	51.0	51.0	71	41.9	2	6	90	0.00	30.263 
01:10	50.8	50.8	50.8	71	41.7	1	3	90	0.00	30.265 
01:15	50.7	50.7	50.7	71	41.6	1	4	90	0.00	30.269 
01:20	50.7	50.7	50.7	72	42.0	1	4	90	0.00	30.266 
01:25	50.5	50.5	50.5	72	41.8	2	4	90	0.00	30.264 
01:30	50.4	50.4	50.4	72	41.7	1	4	68	0.00	30.270 
01:35	50.2	50.2	50.2	72	41.5	1	2	90	0.00	30.272 
01:40	50.1	50.1	50.1	72	41.4	1	4	90	0.00	30.273 
01:45	50.1	50.1	50.1	72	41.4	1	3	90	0.00	30.273 
01:50	49.9	49.9	49.9	72	41.2	1	3	90	0.00	30.272 
01:55	49.8	49.8	49.8	73	41.5	0	3	68	0.00	30.269 
02:00	49.6	49.6	49.6	73	41.3	1	3	68	0.00	30.263 
02:05	49.5	49.5	49.5	73	41.2	1	3	90	0.00	30.259 
02:10	49.4	49.4	49.4	73	41.1	2	5	112	0.00	30.255 
02:15	49.2	49.2	49.2	73	40.9	1	4	90	0.00	30.251 
02:20	49.2	49.2	49.2	73	40.9	1	4	68	0.00	30.251 
02:25	49.1	49.1	49.1	73	40.8	2	5	90	0.00	30.251 
02:30	48.9	48.9	48.9	74	41.0	2	5	90	0.00	30.245 
02:35	48.8	48.8	48.8	73	40.5	1	5	90	0.00	30.246 
02:40	48.8	48.8	48.8	73	40.5	1	4	90	0.00	30.248 
02:45	48.6	48.6	48.6	74	40.7	1	6	90	0.00	30.244 
02:50	48.6	48.6	48.6	74	40.7	1	3	90	0.00	30.244 
02:55	48.6	48.6	48.6	74	40.7	1	3	90	0.00	30.245 
03:00	48.5	48.5	48.5	74	40.6	1	4	90	0.00	30.248 
03:05	48.5	48.5	48.5	74	40.6	1	3	90	0.00	30.248 
03:10	48.5	48.5	48.5	74	40.6	1	4	90	0.00	30.247 
03:15	48.5	48.5	48.5	74	40.6	1	4	68	0.00	30.246 
03:20	48.5	48.5	48.5	73	40.2	1	6	90	0.00	30.246 
03:25	48.5	48.5	48.5	73	40.2	2	4	90	0.00	30.243 
03:30	48.5	48.5	48.5	74	40.6	1	4	68	0.00	30.242 
03:35	48.5	48.5	48.5	73	40.2	2	4	90	0.00	30.242 
03:40	48.5	48.5	48.5	73	40.2	1	3	112	0.00	30.244 
03:45	48.3	48.3	48.3	73	40.1	1	3	90	0.00	30.246 
03:50	48.3	48.3	48.3	74	40.4	1	4	90	0.00	30.247 
03:55	48.3	48.3	48.3	73	40.1	2	5	90	0.00	30.247 
04:00	48.2	48.2	48.2	74	40.3	2	4	90	0.00	30.246 
04:05	48.2	48.2	48.2	73	40.0	2	6	68	0.00	30.247 
04:10	48.2	48.2	48.2	74	40.3	2	6	90	0.00	30.246 
04:15	48.0	48.0	48.0	73	39.8	2	6	90	0.00	30.246 
04:20	48.0	48.0	48.0	73	39.8	2	5	90	0.00	30.244 
04:25	48.0	48.0	48.0	73	39.8	2	4	90	0.00	30.244 
04:30	47.9	47.9	47.9	74	40.0	1	5	68	0.00	30.242 
04:35	47.7	47.7	47.7	74	39.8	1	5	68	0.00	30.241 
04:40	47.7	47.7	47.7	74	39.8	2	6	90	0.00	30.243 
04:45	47.6	47.6	47.6	74	39.7	1	3	90	0.00	30.245 
04:50	47.6	47.6	47.6	74	39.7	1	4	90	0.00	30.244 
04:55	47.4	47.4	47.4	75	39.9	1	3	90	0.00	30.245 
05:00	47.3	47.3	47.3	75	39.8	1	3	90	0.00	30.240 
05:05	47.3	47.3	47.3	75	39.8	2	5	90	0.00	30.242 
05:10	47.1	47.1	47.1	75	39.6	1	4	90	0.00	30.238 
05:15	47.1	47.1	47.1	75	39.6	1	3	112	0.00	30.239 
05:20	47.1	47.1	47.1	75	39.6	1	4	112	0.00	30.238 
05:25	47.0	47.0	47.0	75	39.5	1	5	112	0.00	30.236 
05:30	47.0	47.0	47.0	75	39.5	2	5	90	0.00	30.236 
05:35	47.0	47.0	47.0	75	39.5	2	5	112	0.00	30.237 
05:40	46.8	46.8	46.8	76	39.6	1	3	90	0.00	30.235 
05:45	46.8	46.8	46.8	76	39.6	2	5	90	0.00	30.234 
05:50	46.7	46.7	46.7	76	39.5	2	4	90	0.00	30.233 
05:55	46.7	46.7	46.7	76	39.5	1	5	90	0.00	30.234 
06:00	46.5	46.5	46.5	76	39.3	2	6	112	0.00	30.234 
06:05	46.5	46.5	46.5	77	39.7	2	6	90	0.00	30.236 
06:10	46.4	46.4	46.4	77	39.6	1	5	90	0.00	30.238 
06:15	46.4	46.4	46.4	77	39.6	1	4	112	0.00	30.239 
06:20	46.2	46.2	46.2	77	39.4	1	4	90	0.00	30.239 
06:25	46.2	46.2	46.2	77	39.4	1	4	112	0.00	30.239 
06:30	46.2	46.2	46.2	77	39.4	1	3	90	0.00	30.240 
06:35	46.2	46.2	46.2	77	39.4	1	3	90	0.00	30.240 
06:40	46.1	46.1	46.1	77	39.3	1	3	112	0.00	30.246 
06:45	46.1	46.1	46.1	77	39.3	0	3	112	0.00	30.253 
06:50	46.1	46.1	46.1	77	39.3	0	2	112	0.00	30.253 
06:55	46.1	46.1	46.1	77	39.3	1	2	112	0.00	30.253 
07:00	46.2	46.2	46.2	77	39.4	1	3	90	0.00	30.247 
07:05	46.2	46.2	46.2	77	39.4	1	3	90	0.00	30.252 
07:10	46.4	46.4	46.4	77	39.6	1	4	90	0.00	30.253 
07:15	46.5	46.5	46.5	77	39.7	1	3	90	0.00	30.249 
07:20	46.5	46.5	46.5	77	39.7	2	6	90	0.00	30.244 
07:25	46.7	46.7	46.7	76	39.5	2	4	112	0.00	30.243 
07:30	46.7	46.7	46.7	76	39.5	2	4	90	0.00	30.243 
07:35	46.8	46.8	46.8	76	39.6	1	4	90	0.00	30.242 
07:40	47.0	47.0	47.0	76	39.8	1	5	68	0.00	30.241 
07:45	47.1	47.1	47.1	75	39.6	2	4	112	0.00	30.244 
07:50	47.3	47.3	47.3	75	39.8	2	5	68	0.00	30.245 
07:55	47.4	47.4	47.4	75	39.9	1	4	90	0.00	30.241 
08:00	47.6	47.6	47.6	75	40.1	1	4	90	0.00	30.239 
08:05	47.9	47.9	47.9	73	39.7	2	6	112	0.00	30.239 
08:10	48.0	48.0	48.0	73	39.8	2	5	90	0.00	30.239 
08:15	48.2	48.2	48.2	73	40.0	3	10	90	0.00	30.238 
08:20	48.3	48.3	48.3	73	40.1	2	5	90	0.00	30.236 
08:25	48.6	48.6	48.6	73	40.3	1	4	68	0.00	30.236 
08:30	48.9	48.9	48.9	73	40.6	1	3	90	0.00	30.236 
08:35	49.2	49.2	49.2	73	40.9	1	4	90	0.00	30.236 
08:40	49.5	49.5	49.5	71	40.5	2	5	90	0.00	30.229 
08:45	49.8	49.8	49.8	71	40.8	2	5	90	0.00	30.227 
08:50	49.9	49.9	49.9	71	40.9	2	6	90	0.00	30.225 
08:55	50.4	50.4	50.4	72	41.7	1	4	112	0.00	30.223 
09:00	50.7	50.7	50.7	71	41.6	2	5	90	0.00	30.218 
09:05	51.1	51.1	51.1	70	41.7	2	6	90	0.00	30.220 
09:10	51.6	51.6	51.6	69	41.8	2	5	90	0.00	30.217 
09:15	52.0	52.0	52.0	68	41.8	2	5	90	0.00	30.215 
09:20	52.5	52.5	52.5	67	41.9	2	5	90	0.00	30.209 
09:25	52.9	52.9	52.9	65	41.5	2	6	90	0.00	30.207 
09:30	53.5	53.5	53.5	65	42.0	2	4	90	0.00	30.205 
09:35	53.8	53.8	53.8	63	41.5	2	6	90	0.00	30.203 
09:40	54.1	54.1	54.1	63	41.8	3	7	90	0.00	30.201 
09:45	54.4	54.4	54.4	63	42.1	2	7	90	0.00	30.200 
09:50	54.7	54.7	54.7	62	41.9	2	6	90	0.00	30.199 
09:55	55.0	55.0	55.0	60	41.4	2	9	90	0.00	30.199 
10:00	55.3	55.3	55.3	61	42.1	2	5	112	0.00	30.199 
10:05	55.7	55.7	55.7	60	42.0	2	5	90	0.00	30.192 
10:10	56.2	56.2	56.2	58	41.6	2	5	90	0.00	30.189 
10:15	56.6	56.6	56.6	58	42.0	3	10	90	0.00	30.186 
10:20	57.0	57.0	57.0	58	42.4	2	7	90	0.00	30.184 
10:25	57.3	57.3	57.3	57	42.2	3	5	90	0.00	30.184 
10:30	57.6	57.6	57.6	58	42.9	3	6	90	0.00	30.183 
10:35	58.1	58.1	58.1	56	42.5	2	6	112	0.00	30.181 
10:40	58.4	58.4	58.4	56	42.8	2	6	90	0.00	30.182 
10:45	58.9	58.9	58.9	56	43.2	2	4	90	0.00	30.178 
10:50	59.3	59.3	59.3	54	42.7	2	7	90	0.00	30.181 
10:55	59.8	59.8	59.8	55	43.6	2	5	90	0.00	30.180 
11:00	60.2	60.2	60.2	53	43.0	2	5	90	0.00	30.177 
11:05	60.5	60.5	60.5	52	42.8	2	7	68	0.00	30.172 
11:10	60.7	60.7	60.7	52	43.0	3	6	90	0.00	30.171 
11:15	61.0	61.0	61.0	51	42.7	3	7	90	0.00	30.170 
11:20	61.3	61.3	61.3	51	43.0	3	6	90	0.00	30.168 
11:25	61.8	61.8	61.8	52	44.0	2	9	90	0.00	30.165 
11:30	62.1	62.1	62.1	51	43.8	3	6	90	0.00	30.164 
11:35	62.6	62.6	62.6	52	44.7	3	6	90	0.00	30.162 
11:40	62.9	62.9	62.9	50	44.0	3	7	90	0.00	30.162 
11:45	63.2	63.2	63.2	50	44.2	3	7	90	0.00	30.155 
11:50	63.9	63.9	63.9	50	44.9	2	5	90	0.00	30.153 
11:55	64.5	64.5	64.5	48	44.4	3	7	90	0.00	30.150 
12:00	64.8	64.8	64.8	48	44.6	3	7	112	0.00	30.148 
12:05	65.3	65.3	65.3	46	44.0	3	9	90	0.00	30.144 
12:10	65.3	65.3	65.3	46	44.0	4	9	90	0.00	30.136 
12:15	65.6	65.6	65.6	47	44.8	3	6	90	0.00	30.132 
12:20	65.8	65.8	65.8	45	43.9	3	6	112	0.00	30.131 
12:25	65.8	65.8	65.8	47	45.0	3	6	90	0.00	30.122 
12:30	65.8	65.8	65.8	45	43.9	3	6	90	0.00	30.118 
12:35	66.0	66.0	66.0	46	44.6	3	7	90	0.00	30.116 
12:40	65.8	65.8	65.8	46	44.4	3	11	112	0.00	30.112 
12:45	65.6	65.6	65.6	47	44.8	3	11	90	0.00	30.116 
12:50	65.6	65.6	65.6	47	44.8	3	6	90	0.00	30.113 
12:55	66.0	66.0	66.0	45	44.0	3	6	90	0.00	30.111 
13:00	66.4	66.4	66.4	46	45.0	2	6	90	0.00	30.107 
13:05	66.6	66.6	66.6	45	44.6	3	7	90	0.00	30.102 
13:10	66.4	66.4	66.4	45	44.4	3	7	90	0.00	30.098 
13:15	66.4	66.4	66.4	45	44.4	3	10	90	0.00	30.093 
13:20	66.4	66.4	66.4	45	44.4	3	7	90	0.00	30.089 
13:25	66.4	66.4	66.4	44	43.8	3	6	90	0.00	30.089 
13:30	66.6	66.6	66.6	46	45.2	2	5	90	0.00	30.083 
13:35	66.8	66.8	66.8	46	45.3	4	11	90	0.00	30.079 
13:40	66.9	66.9	66.9	46	45.4	3	7	90	0.00	30.074 
13:45	67.3	67.3	67.3	46	45.8	2	5	112	0.00	30.073 
13:50	67.8	67.8	67.8	45	45.7	2	5	112	0.00	30.071 
13:55	67.9	67.9	67.9	43	44.6	4	10	90	0.00	30.067 
14:00	68.1	68.1	68.1	43	44.7	3	7	90	0.00	30.054 
14:05	68.1	68.1	68.1	44	45.4	3	9	90	0.00	30.054 
14:10	68.3	68.3	68.3	42	44.3	4	11	90	0.00	30.049 
14:15	68.6	68.6	68.6	44	45.8	3	9	90	0.00	30.047 
14:20	68.6	68.6	68.6	44	45.8	4	9	90	0.00	30.042 
14:25	68.9	68.9	68.9	43	45.5	3	7	112	0.00	30.039 
14:30	68.9	68.9	68.9	43	45.5	4	9	90	0.00	30.036 
14:35	69.1	69.1	69.1	43	45.7	3	6	90	0.00	30.037 
14:40	69.4	69.4	69.4	42	45.3	3	10	90	0.00	30.037 
14:45	69.4	69.4	69.4	43	45.9	2	5	90	0.00	30.037 
14:50	69.1	69.1	69.1	42	45.0	5	9	90	0.00	30.039 
14:55	69.1	69.1	69.1	42	45.0	2	6	90	0.00	30.037 
15:00	69.1	69.1	69.1	43	45.7	3	8	90	0.00	30.035 
15:05	69.3	69.3	69.3	42	45.2	3	10	90	0.00	30.032 
15:10	69.4	69.4	69.4	42	45.3	2	6	90	0.00	30.029 
15:15	69.4	69.4	69.4	43	45.9	3	9	90	0.00	30.024 
15:20	69.3	69.3	69.3	43	45.8	3	7	90	0.00	30.022 
15:25	69.1	69.1	69.1	42	45.0	4	7	90	0.00	30.019 
15:30	68.9	68.9	68.9	43	45.5	2	6	90	0.00	30.013 
15:35	68.9	68.9	68.9	43	45.5	3	7	90	0.00	30.011 
15:40	68.8	68.8	68.8	43	45.4	3	7	90	0.00	30.013 
15:45	68.8	68.8	68.8	43	45.4	3	10	90	0.00	30.008 
15:50	68.8	68.8	68.8	43	45.4	3	6	90	0.00	30.007 
15:55	68.8	68.8	68.8	43	45.4	3	6	90	0.00	30.004 
16:00	68.8	68.8	68.8	43	45.4	4	9	90	0.00	29.997 
16:05	68.8	68.8	68.8	43	45.4	3	9	90	0.00	29.994 
16:10	68.8	68.8	68.8	43	45.4	3	9	68	0.00	29.992 
16:15	68.6	68.6	68.6	44	45.8	3	6	90	0.00	29.992 
16:20	68.6	68.6	68.6	43	45.2	3	7	90	0.00	29.992 
16:25	68.6	68.6	68.6	43	45.2	3	7	90	0.00	29.991 
16:30	68.6	68.6	68.6	44	45.8	3	5	90	0.00	29.989 
16:35	68.4	68.4	68.4	43	45.0	4	7	112	0.00	29.989 
16:40	68.4	68.4	68.4	43	45.0	3	7	90	0.00	29.988 
16:45	68.3	68.3	68.3	43	44.9	3	8	90	0.00	29.987 
16:50	68.1	68.1	68.1	43	44.7	2	6	90	0.00	29.986 
16:55	67.9	67.9	67.9	45	45.8	1	3	90	0.00	29.989 
17:00	67.6	67.6	67.6	44	44.9	1	3	90	0.00	29.986 
17:05	67.6	67.6	67.6	44	44.9	2	5	90	0.00	29.983 
17:10	67.4	67.4	67.4	44	44.7	2	4	90	0.00	29.979 
17:15	67.3	67.3	67.3	44	44.6	3	6	90	0.00	29.977 
17:20	67.3	67.3	67.3	44	44.6	3	7	112	0.00	29.976 
17:25	67.3	67.3	67.3	44	44.6	3	5	90	0.00	29.973 
17:30	67.1	67.1	67.1	44	44.5	3	9	90	0.00	29.968 
17:35	66.9	66.9	66.9	44	44.3	3	9	90	0.00	29.966 
17:40	66.8	66.8	66.8	43	43.6	2	7	90	0.00	29.963 
17:45	66.6	66.6	66.6	44	44.0	3	7	90	0.00	29.961 
17:50	66.6	66.6	66.6	44	44.0	2	5	90	0.00	29.961 
17:55	66.4	66.4	66.4	43	43.2	3	7	90	0.00	29.961 
18:00	66.4	66.4	66.4	44	43.8	3	7	90	0.00	29.961 
18:05	66.3	66.3	66.3	44	43.7	3	7	90	0.00	29.959 
18:10	66.3	66.3	66.3	44	43.7	3	7	112	0.00	29.956 
18:15	66.1	66.1	66.1	44	43.5	2	5	90	0.00	29.957 
18:20	66.1	66.1	66.1	43	42.9	3	7	90	0.00	29.959 
18:25	66.1	66.1	66.1	43	42.9	3	7	90	0.00	29.959 
18:30	66.1	66.1	66.1	43	42.9	3	6	90	0.00	29.961 
18:35	66.1	66.1	66.1	43	42.9	2	6	90	0.00	29.962 
18:40	66.0	66.0	66.0	43	42.9	3	10	90	0.00	29.963 
18:45	66.0	66.0	66.0	43	42.9	2	6	112	0.00	29.964 
18:50	65.8	65.8	65.8	44	43.3	1	6	112	0.00	29.964 
18:55	65.6	65.6	65.6	44	43.1	1	5	90	0.00	29.965 
19:00	65.6	65.6	65.6	44	43.1	1	4	112	0.00	29.965 
19:05	65.5	65.5	65.5	44	43.0	1	3	112	0.00	29.963 
19:10	65.3	65.3	65.3	45	43.4	1	5	90	0.00	29.964 
19:15	65.2	65.2	65.2	46	43.9	1	4	90	0.00	29.963 
19:20	65.0	65.0	65.0	46	43.7	1	4	90	0.00	29.963 
19:25	64.8	64.8	64.8	48	44.6	1	2	90	0.00	29.963 
19:30	64.5	64.5	64.5	48	44.4	2	4	90	0.00	29.961 
19:35	64.2	64.2	64.2	50	45.2	1	3	45	0.00	29.959 
19:40	63.9	63.9	63.9	51	45.4	1	3	68	0.00	29.960 
19:45	63.4	63.4	63.4	53	46.0	1	3	90	0.00	29.958 
19:50	63.1	63.1	63.1	56	47.1	1	2	90	0.00	29.960 
19:55	62.6	62.6	62.6	58	47.6	1	2	90	0.00	29.956 
20:00	62.1	62.1	62.1	57	46.7	1	3	68	0.00	29.955 
20:05	62.0	62.0	62.0	57	46.6	1	2	68	0.00	29.952 
20:10	61.8	61.8	61.8	58	46.9	1	3	68	0.00	29.954 
20:15	61.6	61.6	61.6	60	47.6	1	2	68	0.00	29.957 
20:20	61.3	61.3	61.3	59	46.8	1	3	68	0.00	29.955 
20:25	61.2	61.2	61.2	59	46.8	2	4	90	0.00	29.952 
20:30	61.0	61.0	61.0	60	47.0	1	4	90	0.00	29.948 
20:35	60.7	60.7	60.7	62	47.6	1	3	90	0.00	29.948 
20:40	60.4	60.4	60.4	63	47.7	1	3	90	0.00	29.948 
20:45	60.2	60.2	60.2	64	48.0	1	3	112	0.00	29.950 
20:50	59.9	59.9	59.9	65	48.1	1	2	112	0.00	29.950 
20:55	59.8	59.8	59.8	65	48.0	0	2	112	0.00	29.947 
21:00	59.6	59.6	59.6	65	47.8	0	2	112	0.00	29.938 
21:05	59.5	59.5	59.5	66	48.1	0	2	112	0.00	29.931 
21:10	59.3	59.3	59.3	65	47.5	1	3	112	0.00	29.932 
21:15	59.2	59.2	59.2	65	47.4	1	2	112	0.00	29.932 
21:20	59.2	59.2	59.2	65	47.4	0	2	112	0.00	29.930 
21:25	59.0	59.0	59.0	65	47.2	1	3	112	0.00	29.931 
21:30	59.0	59.0	59.0	66	47.7	0	1	112	0.00	29.930 
21:35	59.0	59.0	59.0	66	47.7	0	1	112	0.00	29.930 
21:40	58.9	58.9	58.9	65	47.2	0	1	112	0.00	29.934 
21:45	58.9	58.9	58.9	66	47.6	0	0	---	0.00	29.943 
21:50	58.9	58.9	58.9	67	48.0	0	0	---	0.00	29.940 
21:55	58.7	58.7	58.7	67	47.8	0	1	112	0.00	29.944 
22:00	58.7	58.7	58.7	67	47.8	0	1	112	0.00	29.944 
22:05	58.7	58.7	58.7	67	47.8	0	1	112	0.00	29.939 
22:10	58.7	58.7	58.7	69	48.6	0	1	158	0.00	29.937 
22:15	58.6	58.6	58.6	69	48.5	0	0	---	0.00	29.930 
22:20	58.4	58.4	58.4	69	48.3	0	0	---	0.00	29.926 
22:25	58.4	58.4	58.4	70	48.7	0	0	---	0.00	29.925 
22:30	58.3	58.3	58.3	71	48.9	0	0	---	0.00	29.926 
22:35	58.3	58.3	58.3	72	49.3	0	0	---	0.00	29.925 
22:40	58.3	58.3	58.3	72	49.3	0	0	---	0.00	29.926 
22:45	58.1	58.1	58.1	73	49.5	0	1	158	0.00	29.918 
22:50	58.1	58.1	58.1	74	49.9	0	1	158	0.00	29.913 
22:55	58.1	58.1	58.1	74	49.9	0	1	158	0.00	29.902 
23:00	58.0	58.0	58.0	74	49.8	0	0	---	0.00	29.908 
23:05	58.0	58.0	58.0	75	50.1	0	0	---	0.00	29.905 
23:10	58.0	58.0	58.0	76	50.5	0	0	---	0.00	29.901 
23:15	57.8	57.8	57.8	76	50.3	0	0	---	0.00	29.902 
23:20	57.8	57.8	57.8	77	50.6	0	0	---	0.00	29.904 
23:25	57.8	57.8	57.8	77	50.6	0	0	---	0.00	29.896 
23:30	57.8	57.8	57.8	77	50.6	0	0	---	0.00	29.895 
23:35	57.6	57.6	57.6	77	50.4	0	0	---	0.00	29.892 
23:40	57.6	57.6	57.6	78	50.8	0	1	158	0.00	29.893 
23:45	57.8	57.8	57.8	79	51.3	0	1	158	0.00	29.894 
23:50	58.0	58.0	58.0	81	52.2	0	2	158	0.01	29.892 
23:55	58.1	58.1	58.1	83	53.0	0	1	158	0.00	29.889 

CoCoRaHS
IN-AL-39
A2 Web Hosting
Creative Commons License
GoDaddy
Look for:

loaded 2017-12-13 02:46:14 • last modified 2010-11-18 10:43:29
Privacy PolicyDisclaimer
• wx.awcolley.com is powered by PmWiki v.2002016 •
• all content (unless otherwise noted) © 2017 A W Colley